(318677) = 2001 QS186 = 2005 PO19 = 2005 QX183

Discovered at Palomar on 2005-08-05 by NEAT.

Orbit

Orbit type: Main Belt

Note: WebGL enabled browser required.

epoch2024-03-31.0
epoch JD2460400.5
perihelion date2020-07-01.71930
perihelion JD2459032.21930
argument of perihelion (°)199.23781
ascending node (°)338.27656
inclination (°)9.20174
eccentricity0.1147384
perihelion distance (AU)2.2842433
Tisserand w.r.t. Jupiter3.4
ΔV w.r.t. Earth (km/sec)9.9
semimajor axis (AU)2.5803032
mean anomaly (°)325.36657
mean daily motion (°/day)0.23779230
aphelion distance (AU)2.876
period (years)4.14
P-vector [x]-0.99748977
P-vector [y]0.06436253
P-vector [z]-0.02952335
Q-vector [x]-0.03887176
Q-vector [y]-0.84620609
Q-vector [z]-0.53143602
absolute magnitude16.48
phase slope0.15
uncertainty0
referenceMPEC 2024-E179
observations used470
oppositions13
arc length (days)8240
first opposition used2001
last opposition used2024
residual rms (arc-secs)0.75
perturbers coarse indicatorM-v
perturbers precise indicator003Ek
first observation date used2001-08-21.0
last observation date used2024-03-13.0
computer nameMPCLINUX
JD of orbit computation2456966.705401
perihelion JD uncertainty (days)6.0518E-05
argument of perihelion uncertainty (°)2.7309E-05
ascending node uncertainty (°)2.0457E-05
inclination uncertainty (°)7.3693E-06
eccentricity uncertainty 7.0094E-08
perihelion distance uncertainty (AU)1.8017E-07
Minimum Orbit Intersection Distances (in AU)
for orbit epoch: 2460400.5, reference: E2024-GB3
Mercury1.88526
Venus1.57046
Earth1.29149
Mars0.63272
Jupiter2.1029
Saturn6.47362
Uranus16.1456
Neptune27.005

Observations

484 total observations over interval: 2001 08 21.39941 – 2024 03 13.166959
These data are available for download (format description).

Date (UT) J2000 RA J2000 Dec Magn Location Ref
2001 08 21.39941 23 27 23.91 -02 09 16.5 21.4 V 691 – Steward Observatory, Kitt Peak-Spacewatch MPS 34808
2001 08 21.42100 23 27 22.81 -02 09 18.9 21.1 V 691 – Steward Observatory, Kitt Peak-Spacewatch MPS 34808
2001 08 21.44210 23 27 21.79 -02 09 21.2 21.3 V 691 – Steward Observatory, Kitt Peak-Spacewatch MPS 34808
2001 08 27.31335 23 22 31.66 -02 21 29.2 21.1 V 691 – Steward Observatory, Kitt Peak-Spacewatch MPS 34808
2001 08 27.33456 23 22 30.52 -02 21 32.2 21.0 V 691 – Steward Observatory, Kitt Peak-Spacewatch MPS 34808
2001 08 27.35585 23 22 29.38 -02 21 35.1 20.9 V 691 – Steward Observatory, Kitt Peak-Spacewatch MPS 34808
2005 08 05.44373 22 46 37.94 -09 56 06.2 21.0   644 – Palomar Mountain/NEAT MPS 139703
2005 08 05.45381 22 46 37.50 -09 56 07.0 20.9   644 – Palomar Mountain/NEAT MPS 139703
2005 08 05.46562 22 46 36.93 -09 56 08.9 21.1   644 – Palomar Mountain/NEAT MPS 139703
2005 08 06.46408 22 45 52.28 -09 58 00.3 20.6   644 – Palomar Mountain/NEAT MPS 139703
2005 08 06.47499 22 45 51.74 -09 58 01.3 20.9   644 – Palomar Mountain/NEAT MPS 139703
2005 08 06.48939 22 45 51.07 -09 58 03.0 20.4   644 – Palomar Mountain/NEAT MPS 139703
2005 08 30.33235 22 24 29.40 -10 53 52.6 20.6 g 568 – Maunakea MPS 248971
2005 08 30.35988 22 24 27.78 -10 53 56.4 20.6 g 568 – Maunakea MPS 248971
2005 08 30.38577 22 24 26.24 -10 54 00.3 20.6 g 568 – Maunakea MPS 248971
2005 09 02.36765 22 21 36.47 -11 00 56.5 20.8 g 568 – Maunakea MPS 250268
2005 09 23.11075 22 04 36.24 -11 33 24.6 21.1 V 691 – Steward Observatory, Kitt Peak-Spacewatch MPS 176065
2005 09 23.13491 22 04 35.28 -11 33 25.5 20.9 V 691 – Steward Observatory, Kitt Peak-Spacewatch MPS 176065
2005 09 23.15545 22 04 34.47 -11 33 26.2 21.0 V 691 – Steward Observatory, Kitt Peak-Spacewatch MPS 176065
2005 09 30.16197 22 00 36.93 -11 35 47.9 20.7 V G96 – Mt. Lemmon Survey MPS 176065
2005 09 30.16785 22 00 36.68 -11 35 47.8 20.9 V G96 – Mt. Lemmon Survey MPS 176065
2005 09 30.17390 22 00 36.54 -11 35 47.8 20.5 V G96 – Mt. Lemmon Survey MPS 176065
2005 09 30.17972 22 00 36.36 -11 35 47.3 20.3 V G96 – Mt. Lemmon Survey MPS 176065
2010 11 10.508951 02 55 20.018 +30 57 10.31 21.05 g F51 – Pan-STARRS 1, Haleakala MPS 365525
2010 11 10.521100 02 55 19.179 +30 57 08.17 21.15 g F51 – Pan-STARRS 1, Haleakala MPS 365525
2012 01 27.52506 12 16 12.61 -03 01 50.9 20.3 V G96 – Mt. Lemmon Survey MPS 411550
2012 01 27.52968 12 16 12.61 -03 01 52.5 20.3 V G96 – Mt. Lemmon Survey MPS 411550
2012 01 27.53440 12 16 12.64 -03 01 54.2 20.1 V G96 – Mt. Lemmon Survey MPS 411550
2012 01 27.53909 12 16 12.72 -03 01 55.5 20.2 V G96 – Mt. Lemmon Survey MPS 411550
2012 02 13.46337 12 14 16.26 -04 21 16.9 19.8 V 691 – Steward Observatory, Kitt Peak-Spacewatch MPS 411550
2012 02 13.47605 12 14 16.02 -04 21 19.7 20.0 V 691 – Steward Observatory, Kitt Peak-Spacewatch MPS 411550
2012 02 13.48873 12 14 15.67 -04 21 22.2 20.2 V 691 – Steward Observatory, Kitt Peak-Spacewatch MPS 411550
2012 02 19.41381 12 11 31.11 -04 39 00.1 20.3 V 691 – Steward Observatory, Kitt Peak-Spacewatch MPS 413009
2012 02 19.42657 12 11 30.65 -04 39 02.1 19.7 V 691 – Steward Observatory, Kitt Peak-Spacewatch MPS 413009
2012 02 19.43933 12 11 30.21 -04 39 03.7 19.7 V 691 – Steward Observatory, Kitt Peak-Spacewatch MPS 413009
2012 02 22.41686 12 09 44.06 -04 45 48.6 20.0 V 703 – Catalina Sky Survey MPS 413009
2012 02 22.42568 12 09 43.74 -04 45 49.4 19.4 V 703 – Catalina Sky Survey MPS 413009
2012 02 22.43459 12 09 43.41 -04 45 50.8 19.9 V 703 – Catalina Sky Survey MPS 413009
2012 02 22.44349 12 09 42.91 -04 45 51.8 19.3 V 703 – Catalina Sky Survey MPS 413009
2012 02 23.33492 12 09 08.62 -04 47 35.8 19.7 V 691 – Steward Observatory, Kitt Peak-Spacewatch MPS 413009
2012 02 23.35581 12 09 07.74 -04 47 38.1 19.6 V 691 – Steward Observatory, Kitt Peak-Spacewatch MPS 413009
2012 02 23.37374 12 09 06.99 -04 47 40.2 19.6 V 691 – Steward Observatory, Kitt Peak-Spacewatch MPS 413009
2012 02 27.46805 12 06 11.773 -04 54 01.99 19.9 w F51 – Pan-STARRS 1, Haleakala MPS 414176
2012 02 27.48281 12 06 11.066 -04 54 03.14 19.9 w F51 – Pan-STARRS 1, Haleakala MPS 414176
2012 02 27.49761 12 06 10.338 -04 54 04.19 20.0 w F51 – Pan-STARRS 1, Haleakala MPS 414176
2012 02 27.51237 12 06 09.630 -04 54 05.33 19.9 w F51 – Pan-STARRS 1, Haleakala MPS 414176
2012 02 28.49240 12 05 24.038 -04 55 13.86 19.7 r F51 – Pan-STARRS 1, Haleakala MPS 414176
2012 02 28.50222 12 05 23.555 -04 55 14.50 19.7 r F51 – Pan-STARRS 1, Haleakala MPS 414176
2012 03 14.41941 11 51 43.38 -04 56 10.9 18.4 V 703 – Catalina Sky Survey MPS 417172
2012 03 14.42567 11 51 42.87 -04 56 11.7 19.4 V 703 – Catalina Sky Survey MPS 417172
2012 03 14.43214 11 51 42.55 -04 56 10.2 19.0 V 703 – Catalina Sky Survey MPS 417172
2012 03 14.43858 11 51 42.12 -04 56 09.3 18.5 V 703 – Catalina Sky Survey MPS 417172
2012 03 15.33145 11 50 48.58 -04 55 21.5 19.0 V G96 – Mt. Lemmon Survey MPS 417172
2012 03 15.33890 11 50 48.12 -04 55 21.2 19.0 V G96 – Mt. Lemmon Survey MPS 417172
2012 03 15.34641 11 50 47.65 -04 55 20.8 19.0 V G96 – Mt. Lemmon Survey MPS 417172
2012 03 15.35392 11 50 47.18 -04 55 20.4 18.9 V G96 – Mt. Lemmon Survey MPS 417172
2012 03 20.36745 11 45 43.381 -04 49 30.97 19.1 w F51 – Pan-STARRS 1, Haleakala MPS 418394
2012 03 20.38208 11 45 42.459 -04 49 29.78 19.2 w F51 – Pan-STARRS 1, Haleakala MPS 418394
2012 03 20.39671 11 45 41.533 -04 49 28.59 19.2 w F51 – Pan-STARRS 1, Haleakala MPS 418394
2012 03 20.41132 11 45 40.611 -04 49 27.42 19.2 w F51 – Pan-STARRS 1, Haleakala MPS 418394
2013 07 13.46756 21 06 52.396 -24 59 53.12 20.3 w F51 – Pan-STARRS 1, Haleakala MPS 472598
2013 07 13.48465 21 06 51.471 -24 59 55.35 20.5 w F51 – Pan-STARRS 1, Haleakala MPS 472598
2013 07 13.50105 21 06 50.581 -24 59 57.43 20.4 w F51 – Pan-STARRS 1, Haleakala MPS 472598
2013 07 13.51564 21 06 49.789 -24 59 59.29 20.3 w F51 – Pan-STARRS 1, Haleakala MPS 472598
2013 08 02.40296 20 47 06.504 -25 32 10.03 20.0 w F51 – Pan-STARRS 1, Haleakala MPS 473635
2013 08 02.41661 20 47 05.620 -25 32 10.73 20.1 w F51 – Pan-STARRS 1, Haleakala MPS 473635
2013 08 02.43026 20 47 04.732 -25 32 11.40 20.0 w F51 – Pan-STARRS 1, Haleakala MPS 473635
2013 08 02.44394 20 47 03.846 -25 32 12.05 20.2 w F51 – Pan-STARRS 1, Haleakala MPS 473635
2014 10 03.36200 02 21 17.81 +25 26 01.6 21.0 V G96 – Mt. Lemmon Survey MPS 538676
2014 10 03.37453 02 21 17.23 +25 26 02.5 20.8 V G96 – Mt. Lemmon Survey MPS 538676
2014 10 03.38706 02 21 16.67 +25 26 03.1 21.0 V G96 – Mt. Lemmon Survey MPS 538676
2014 10 03.39958 02 21 16.12 +25 26 03.3 20.6 V G96 – Mt. Lemmon Survey MPS 538676
2014 10 22.34491 02 04 09.61 +25 10 29.9 20.3 V G96 – Mt. Lemmon Survey MPS 542046
2014 10 22.36306 02 04 08.47 +25 10 26.9 20.1 V G96 – Mt. Lemmon Survey MPS 542046
2014 10 22.37974 02 04 07.44 +25 10 24.6 20.0 V G96 – Mt. Lemmon Survey MPS 542046
2014 10 22.39531 02 04 06.44 +25 10 22.4 20.2 V G96 – Mt. Lemmon Survey MPS 542046
2014 11 01.23721 01 54 03.35 +24 38 36.3 20.0 V G96 – Mt. Lemmon Survey MPS 544785
2014 11 01.24677 01 54 02.76 +24 38 34.3 20.1 V G96 – Mt. Lemmon Survey MPS 544785
2014 11 01.25634 01 54 02.16 +24 38 32.1 20.4 V G96 – Mt. Lemmon Survey MPS 544785
2014 11 01.26590 01 54 01.56 +24 38 30.0 19.8 V G96 – Mt. Lemmon Survey MPS 544785
2014 11 20.42641 01 37 08.213 +23 09 43.28 20.8 w F51 – Pan-STARRS 1, Haleakala MPS 547423
2014 11 20.44007 01 37 07.612 +23 09 39.05 20.7 w F51 – Pan-STARRS 1, Haleakala MPS 547423
2014 11 20.45375 01 37 07.025 +23 09 34.78 20.8 w F51 – Pan-STARRS 1, Haleakala MPS 547423
2014 11 20.46740 01 37 06.436 +23 09 30.79 20.8 w F51 – Pan-STARRS 1, Haleakala MPS 547423
2014 12 15.19055 01 28 00.70 +21 26 13.8 21.7 V G96 – Mt. Lemmon Survey MPS 558214
2014 12 15.19753 01 28 00.69 +21 26 13.2 21.3 V G96 – Mt. Lemmon Survey MPS 558214
2014 12 15.20728 01 28 00.68 +21 26 11.3 21.5 V G96 – Mt. Lemmon Survey MPS 558214
2014 12 15.21426 01 28 00.65 +21 26 09.9 21.1 V G96 – Mt. Lemmon Survey MPS 558214
2015 12 17.57377 10 53 10.293 +11 51 23.78 20.7 w F51 – Pan-STARRS 1, Haleakala MPS 662477
2015 12 17.58349 10 53 10.686 +11 51 20.52 20.4 w F51 – Pan-STARRS 1, Haleakala MPS 662477
